[[{"header":{"parameterUnit":"m.s-1","parameterCategory":2,"la1":30.2991,"la2":30.254,"lo1":-89.0895,"lo2":-89.0444,"dy":0.0017,"dx":0.0017,"nx":28,"ny":28,"refTime":"2023-08-13T03:00:00:Z","depth":"0","parameterNumber":2,"parameterNumberName":"U-component_of_CURRENTS"},"data":[0,0,0,0,0,0,0,0,0,0,0,0,0,0,0,0,0,0,0,0,0,0,0,0,0,0,0,0,0,0,0,0,0,0,0,0,0,0,0,0,0,0,0,0,0,0,0,0,0,0,0,0,0,0,0,0,0,0,0.3812,0.3813,0,0.3928,0.3929,0.3929,0.3849,0.3846,0.3842,0.384,0.3914,0.3919,0.3924,0,0,0,0,0,0,0,0,0,0,0,0,0,0.3551,0.3555,0.3811,0.3813,0.3815,0.3928,0.3929,0.393,0.3849,0.3845,0.3842,0.3838,0.3913,0.3918,0.3924,0,0,0,0,0,0,0,0,0,0,0,0,0,0.366,0.3557,0.3811,0.3793,0.3793,0.3927,0.3929,0.393,0.385,0.3845,0.3841,0.3836,0.3911,0.3918,0.3925,0.4064,0,0,0.3948,0.3951,0,0,0,0,0,0,0,0,0.3654,0.3669,0.3794,0.3794,0.3795,0.3874,0.3864,0.3975,0.3851,0.3822,0.3839,0.3834,0.3904,0.3912,0.3937,0.4067,0.4071,0.3948,0.3953,0.3956,0.3958,0,0,0,0,0,0,0,0.3646,0.3663,0.3852,0.3796,0.3797,0.379,0.3799,0.3885,0.3883,0.3825,0.382,0.3844,0.3903,0.393,0.3938,0.4072,0.3948,0.3955,0.3959,0.3962,0.4267,0.4271,0,0,0,0,0,0,0.3648,0.3657,0.3848,0.3856,0.3718,0.3799,0.3809,0.3849,0.3883,0.3886,0.3848,0.384,0.3919,0.3929,0.394,0.4077,0.3956,0.3963,0.3967,0.4264,0.4268,0.4272,0,0,0,0,0,0,0.3642,0.3665,0.3843,0.3761,0.3784,0.3809,0.3853,0.3853,0.3865,0.3902,0.3901,0.3857,0.3916,0.393,0.4007,0.4079,0.3966,0.3973,0.4259,0.4265,0.427,0.4369,0,0,0,0,0,0,0.3635,0.3662,0.3695,0.3763,0.3789,0.3912,0.3859,0.3859,0.389,0.388,0.3912,0.3914,0.3913,0.3996,0.4014,0.4087,0.3978,0.4254,0.4262,0.4268,0.4361,0.4377,0.4391,0,0,0,0,0,0.3625,0.3695,0.3697,0.372,0.3833,0.3915,0.3927,0.3923,0.3895,0.3913,0.3934,0.3912,0.4052,0.4006,0.4026,0.4103,0.4251,0.426,0.4268,0.4354,0.4374,0.4391,0,0,0,0,0,0,0.3617,0.3697,0.3698,0.3793,0.3842,0.3902,0.3941,0.3938,0.3974,0.3963,0.397,0.3977,0.4085,0.4085,0.4032,0.4211,0.4147,0.416,0.4206,0.4225,0.424,0.4204,0.3984,0,0,0,0,0,0.3633,0.3694,0.3761,0.3838,0.3866,0.3905,0.394,0.3939,0.3983,0.3991,0.4007,0.4051,0.4148,0.4168,0.4241,0.434,0.4376,0.44,0.4415,0.4428,0.4414,0.4571,0.4599,0.4299,0.4299,0.4299,0,0,0.3659,0.3709,0.3748,0.3839,0.388,0.3933,0.3912,0.3975,0.4012,0.4004,0.4055,0.4121,0.4193,0.4302,0.4347,0.4297,0.4535,0.4438,0.4449,0.4427,0.4583,0.4612,0.4638,0.4305,0.4304,0.4303,0,0,0.372,0.3781,0.3831,0.3874,0.3938,0.3971,0.3988,0.4041,0.4051,0.4136,0.4155,0.4249,0.435,0.4415,0.447,0.4618,0.4631,0.4643,0.467,0.4824,0.485,0.4872,0.4962,0.4992,0.4625,0.4625,0.4625,0,0.374,0.3816,0.3861,0.3908,0.3951,0.3985,0.4036,0.4083,0.4143,0.4177,0.4152,0.4358,0.4413,0.4579,0.4617,0.4655,0.4715,0.4594,0.4843,0.4867,0.4888,0.4974,0.5006,0.4631,0.463,0.4629,0.4629,0,0.3813,0.3874,0.3918,0.3981,0.4032,0.4097,0.4153,0.4194,0.422,0.4261,0.4409,0.4501,0.4606,0.4665,0.4686,0.4876,0.4862,0.4867,0.4791,0.4924,0.5007,0.5038,0.4639,0.4637,0.4635,0.4634,0,0,0.3845,0.3947,0.3956,0.3977,0.4073,0.4112,0.4203,0.4293,0.4339,0.4423,0.4512,0.4697,0.4728,0.4791,0.4853,0.4964,0.5182,0.4965,0.497,0.504,0.5491,0.5366,0.5387,0.5238,0.5244,0.5249,0.5488,0,0.388,0.3964,0.4014,0.4089,0.4134,0.4195,0.4267,0.4346,0.442,0.4507,0.4641,0.4754,0.4786,0.4843,0.4983,0.5138,0.5268,0.5114,0.536,0.5366,0.5231,0.5421,0.5251,0.544,0.5518,0.5523,0.5527,0,0.3908,0.3962,0.4037,0.4118,0.4142,0.4183,0.4285,0.4354,0.4502,0.4563,0.4706,0.4794,0.4995,0.499,0.5328,0.5228,0.5368,0.5471,0.5484,0.5344,0.53,0.5321,0.5493,0.5269,0.5574,0.5571,0.5567,0,0.3859,0.3968,0.4019,0.405,0.4153,0.4182,0.4236,0.436,0.4413,0.4586,0.4647,0.4894,0.5003,0.5246,0.5447,0.5417,0.5785,0.5779,0.5801,0.5791,0.5677,0.5647,0.5644,0.6035,0.6034,0.6034,0.6033,0,0.3864,0.3892,0.3986,0.4002,0.4042,0.4128,0.4178,0.4267,0.4398,0.4479,0.4655,0.4765,0.5075,0.5298,0.5496,0.5735,0.5849,0.5839,0.587,0.5704,0.5675,0.5492,0.5367,0.6042,0.6041,0.6039,0.6037,0,0.3779,0.3859,0.3894,0.3989,0.4009,0.402,0.4099,0.4146,0.4278,0.4396,0.4449,0.4708,0.4996,0.5275,0.5657,0.5763,0.5847,0.6066,0.5805,0.58,0.5559,0.5445,0.5361,0.5225,0.6146,0.6144,0.6143,0,0.3743,0.3759,0.3833,0.3844,0.3872,0.3906,0.3936,0.4064,0.4129,0.4355,0.4418,0.4691,0.4888,0.5355,0.5631,0.5964,0.5792,0.5932,0.5846,0.5538,0.544,0.5248,0.5127,0.5755,0.5751,0.5748,0.5745,0,0.3654,0.3674,0.3701,0.3731,0.3751,0.377,0.3831,0.3856,0.4033,0.4149,0.4325,0.4485,0.4914,0.5154,0.5533,0.5731,0.559,0.5865,0.5666,0.5223,0.4904,0.4788,0.5553,0.5714,0.5717,0.572,0.5721,0.5722,0.3564,0.3559,0.3601,0.3617,0.3629,0.3629,0.3618,0.3718,0.3797,0.3963,0.4175,0.4381,0.4699,0.5209,0.5358,0.5392,0.5399,0.5303,0.5226,0.5087,0.4824,0.5463,0.5568,0.557,0.5572,0.5573,0.5575,0,0.3477,0.349,0.3495,0.3503,0.3463,0.3517,0.3549,0.3544,0.3607,0.3812,0.3972,0.4231,0.4453,0.4712,0.4895,0.4781,0.4681,0.4638,0.4344,0.4291,0.4995,0.4836,0.4639,0.4639,0.4639,0.464,0.464,0.464,0.3437,0.3421,0.3436,0.3353,0.3339,0.3282,0.3279,0.3304,0.3412,0.3518,0.3649,0.3815,0.4065,0.4244,0.4209,0.4174,0.3856,0.3719,0.3679,0.415,0.4205,0.4258,0.408,0.3728,0.3727,0.2883,0.2875,0.287]},{"header":{"parameterUnit":"m.s-1","parameterCategory":2,"la1":30.2991,"la2":30.254,"lo1":-89.0895,"lo2":-89.0444,"dy":0.0017,"dx":0.0017,"nx":28,"ny":28,"refTime":"2023-08-13T03:00:00:Z","depth":"0","parameterNumber":3,"parameterNumberName":"V-component_of_CURRENTS"},"data":[0,0,0,0,0,0,0,0,0,0,0,0,0,0,0,0,0,0,0,0,0,0,0,0,0,0,0,0,0,0,0,0,0,0,0,0,0,0,0,0,0,0,0,0,0,0,0,0,0,0,0,0,0,0,0,0,0,0,0.0954,0.0953,0,0.0892,0.0892,0.0891,0.0788,0.0786,0.0784,0.0782,0.0647,0.0645,0.0643,0,0,0,0,0,0,0,0,0,0,0,0,0,0.0888,0.089,0.0954,0.0953,0.0952,0.0893,0.0892,0.0891,0.0788,0.0786,0.0783,0.0781,0.0647,0.0645,0.0643,0,0,0,0,0,0,0,0,0,0,0,0,0,0.0881,0.0891,0.0954,0.0894,0.0888,0.0893,0.0892,0.0891,0.0788,0.0786,0.0783,0.078,0.0648,0.0645,0.0643,0.0683,0,0,0.0634,0.0633,0,0,0,0,0,0,0,0,0.0882,0.0884,0.0904,0.0898,0.0891,0.0845,0.0819,0.0818,0.0789,0.0826,0.0782,0.0779,0.0708,0.0701,0.0696,0.0677,0.0671,0.0634,0.0632,0.0631,0.0631,0,0,0,0,0,0,0,0.0882,0.0885,0.0929,0.0903,0.0896,0.0838,0.0834,0.0818,0.0783,0.0823,0.0815,0.0809,0.0704,0.0699,0.0692,0.0669,0.0634,0.0632,0.063,0.0629,0.0699,0.0702,0,0,0,0,0,0,0.0899,0.0887,0.0931,0.0928,0.0879,0.0842,0.0838,0.0863,0.0784,0.077,0.0812,0.0805,0.0705,0.0695,0.0687,0.0769,0.0631,0.0629,0.0627,0.0695,0.0699,0.0703,0,0,0,0,0,0,0.0899,0.0905,0.0934,0.0903,0.0903,0.0847,0.0875,0.0863,0.086,0.0777,0.076,0.0821,0.0703,0.0691,0.0706,0.0761,0.0628,0.0625,0.0691,0.0697,0.0701,0.0909,0,0,0,0,0,0,0.0898,0.0906,0.0938,0.0906,0.0905,0.0958,0.0877,0.0864,0.0861,0.0851,0.078,0.0764,0.0699,0.0711,0.0703,0.0755,0.0623,0.0687,0.0693,0.07,0.0898,0.0921,0.094,0,0,0,0,0,0.0896,0.096,0.0941,0.0946,0.095,0.096,0.0956,0.0903,0.0865,0.0886,0.0848,0.0766,0.0746,0.0713,0.0703,0.0755,0.0683,0.0692,0.0699,0.0888,0.0916,0.094,0,0,0,0,0,0,0.096,0.0955,0.0933,0.0996,0.0985,0.0943,0.0967,0.0926,0.0915,0.0906,0.0819,0.0804,0.0835,0.0777,0.0743,0.0795,0.0699,0.0705,0.0846,0.0871,0.0892,0.0917,0.0621,0,0,0,0,0,0.099,0.1031,0.1009,0.1061,0.1065,0.102,0.102,0.0984,0.0963,0.0954,0.0898,0.086,0.0864,0.0853,0.0831,0.0869,0.0815,0.0894,0.0915,0.0933,0.0949,0.0946,0.0968,0.0729,0.0729,0.0729,0,0,0.103,0.1032,0.1057,0.1076,0.1066,0.1093,0.1015,0.1032,0.1053,0.0945,0.0965,0.0934,0.0893,0.0934,0.0941,0.0889,0.0975,0.0943,0.096,0.0965,0.0956,0.0979,0.1,0.0734,0.0733,0.0732,0,0,0.1116,0.1138,0.1187,0.1191,0.1185,0.1166,0.1178,0.1145,0.1135,0.1163,0.1098,0.1116,0.1087,0.1081,0.1077,0.1209,0.1092,0.1187,0.1311,0.1309,0.1328,0.1345,0.131,0.1322,0.1194,0.1194,0.1195,0,0.1164,0.1218,0.1205,0.1245,0.126,0.1208,0.1255,0.1257,0.1226,0.1241,0.1193,0.1209,0.1168,0.1245,0.1288,0.1259,0.1217,0.1217,0.1337,0.1352,0.1365,0.1325,0.1335,0.1205,0.1204,0.1203,0.1202,0,0.1261,0.1308,0.1348,0.138,0.1402,0.1441,0.1432,0.1452,0.1432,0.1415,0.1474,0.1443,0.1445,0.1448,0.1411,0.1496,0.1423,0.1368,0.1272,0.1402,0.1351,0.1358,0.1221,0.1217,0.1214,0.1211,0,0,0.1354,0.1405,0.1415,0.1448,0.1473,0.1502,0.1571,0.1613,0.1661,0.1647,0.1717,0.1743,0.1704,0.1699,0.1655,0.1664,0.1727,0.1565,0.156,0.1531,0.1698,0.161,0.1607,0.1685,0.1687,0.1689,0.1626,0,0.1429,0.1519,0.1528,0.1625,0.1674,0.1673,0.1744,0.1776,0.1791,0.1843,0.1844,0.1883,0.1806,0.1821,0.1829,0.1759,0.1754,0.1748,0.1576,0.1571,0.1477,0.1616,0.1547,0.1482,0.1631,0.1632,0.1633,0,0.1507,0.1556,0.1654,0.1745,0.1771,0.1822,0.1922,0.1976,0.2042,0.2057,0.2096,0.2068,0.2115,0.2015,0.1971,0.1965,0.1853,0.1783,0.1777,0.1626,0.1497,0.1375,0.1487,0.1115,0.1642,0.1641,0.164,0,0.1549,0.1649,0.1729,0.1756,0.1848,0.1907,0.1962,0.2036,0.2101,0.2184,0.2232,0.2255,0.2272,0.2181,0.2032,0.2004,0.1947,0.1879,0.1691,0.168,0.1554,0.1529,0.1286,0.1833,0.1833,0.1833,0.1833,0,0.1618,0.1684,0.1753,0.1796,0.1907,0.1962,0.2086,0.2139,0.224,0.2336,0.2335,0.2412,0.2312,0.2256,0.2101,0.1928,0.1992,0.1744,0.168,0.1624,0.1607,0.1219,0.1101,0.183,0.1831,0.1831,0.1832,0,0.1644,0.1691,0.1782,0.1885,0.1924,0.2,0.2139,0.2233,0.2318,0.2446,0.248,0.2537,0.2497,0.2349,0.2203,0.201,0.1677,0.1747,0.1675,0.1605,0.1094,0.0994,0.0809,0.0706,0.1563,0.1561,0.1559,0,0.1663,0.1711,0.182,0.1875,0.1921,0.2039,0.2132,0.225,0.2351,0.2521,0.2592,0.2613,0.2656,0.2418,0.2109,0.1834,0.1596,0.1527,0.1473,0.1081,0.0923,0.0875,0.08,0.1381,0.1378,0.1376,0.1374,0,0.169,0.1721,0.1788,0.1892,0.1988,0.2116,0.2253,0.2341,0.25,0.2621,0.2779,0.284,0.2649,0.2402,0.2006,0.1773,0.1306,0.1462,0.1088,0.0807,0.0712,0.0575,0.1373,0.135,0.1353,0.1354,0.1356,0.1357,0.1687,0.173,0.1811,0.1913,0.2028,0.2178,0.2285,0.2444,0.262,0.283,0.2901,0.3036,0.2598,0.2104,0.177,0.0983,0.1125,0.0714,0.064,0.0634,0.0501,0.1238,0.1121,0.1122,0.1122,0.1123,0.1124,0,0.1665,0.173,0.1831,0.1958,0.2077,0.2153,0.2358,0.2484,0.268,0.2919,0.3081,0.2905,0.2329,0.1744,0.0744,0.0217,0.0103,-0.0087,-0.0209,-0.0231,0.0413,0.036,0.0034,0.0034,0.0034,0.0035,0.0035,0.0035,0.1653,0.1724,0.1789,0.1964,0.2068,0.2244,0.2361,0.2558,0.276,0.3,0.3089,0.3161,0.2517,0.0795,-0.0426,-0.0653,-0.0956,-0.0991,-0.1117,-0.0784,-0.0717,-0.0654,-0.0742,-0.1293,-0.1295,-0.1749,-0.1754,-0.1758]}],[{"header":{"parameterUnit":"m.s-1","parameterCategory":2,"la1":30.2991,"la2":30.254,"lo1":-89.0895,"lo2":-89.0444,"dy":0.0017,"dx":0.0017,"nx":28,"ny":28,"refTime":"2023-08-13T03:00:00:Z","depth":"2","parameterNumber":2,"parameterNumberName":"U-component_of_CURRENTS"},"data":[0,0,0,0,0,0,0,0,0,0,0,0,0,0,0,0,0,0,0,0,0,0,0,0,0,0,0,0,0,0,0,0,0,0,0,0,0,0,0,0,0,0,0,0,0,0,0,0,0,0,0,0,0,0,0,0,0,0,0.2553,0.2554,0,0.2666,0.2667,0.2669,0.2692,0.2692,0.2691,0.269,0.2722,0.2723,0.2725,0,0,0,0,0,0,0,0,0,0,0,0,0,0.2422,0.2424,0.2553,0.2555,0.2556,0.2666,0.2668,0.2669,0.2693,0.2692,0.2691,0.269,0.2721,0.2723,0.2725,0,0,0,0,0,0,0,0,0,0,0,0,0,0.2501,0.2425,0.2553,0.2581,0.2585,0.2666,0.2668,0.2669,0.2693,0.2692,0.269,0.2689,0.272,0.2723,0.2725,0.2764,0,0,0.2732,0.2733,0,0,0,0,0,0,0,0,0.2496,0.2506,0.2576,0.258,0.2584,0.2664,0.2633,0.2697,0.2693,0.2651,0.269,0.2689,0.2696,0.27,0.2725,0.2766,0.2767,0.2733,0.2734,0.2735,0.2736,0,0,0,0,0,0,0,0.2491,0.2501,0.2597,0.2577,0.2582,0.2611,0.262,0.2646,0.2677,0.2655,0.2657,0.2671,0.2697,0.2723,0.2726,0.2767,0.2733,0.2735,0.2736,0.2737,0.2964,0.2969,0,0,0,0,0,0,0.2476,0.2496,0.2594,0.2601,0.2537,0.2614,0.2624,0.2639,0.2679,0.2685,0.2672,0.2671,0.2719,0.2723,0.2727,0.2852,0.2735,0.2737,0.2739,0.296,0.2965,0.297,0,0,0,0,0,0,0.2473,0.2484,0.2589,0.2551,0.2566,0.2617,0.2634,0.2642,0.2696,0.2693,0.2696,0.272,0.2718,0.2723,0.2799,0.285,0.2738,0.2741,0.2954,0.2962,0.2968,0.3053,0,0,0,0,0,0,0.2469,0.2482,0.25,0.255,0.2568,0.2649,0.2636,0.2645,0.2704,0.2706,0.2735,0.2735,0.2718,0.2796,0.2802,0.2851,0.2742,0.2949,0.2958,0.2966,0.3044,0.3062,0.3077,0,0,0,0,0,0.2464,0.2485,0.25,0.2513,0.2587,0.265,0.2663,0.2694,0.2708,0.2738,0.2781,0.2735,0.2855,0.2802,0.2807,0.2859,0.2944,0.2955,0.2965,0.3037,0.3059,0.3077,0,0,0,0,0,0,0.2447,0.2491,0.2508,0.2545,0.2601,0.2654,0.2687,0.2721,0.2782,0.2788,0.2791,0.2796,0.2885,0.2877,0.2819,0.2958,0.2894,0.2906,0.2948,0.2968,0.2984,0.2921,0.2744,0,0,0,0,0,0.245,0.247,0.253,0.2562,0.2593,0.2653,0.2689,0.2715,0.277,0.2797,0.2844,0.2888,0.2932,0.2952,0.2994,0.3063,0.3043,0.3107,0.3123,0.3136,0.3097,0.3148,0.3163,0.3004,0.3004,0.3004,0,0,0.2443,0.248,0.2486,0.256,0.2605,0.2655,0.2672,0.2734,0.2789,0.2789,0.2904,0.2952,0.297,0.3055,0.3093,0.3049,0.3184,0.315,0.316,0.3111,0.316,0.3175,0.3187,0.3012,0.301,0.3009,0,0,0.2443,0.2487,0.2503,0.2559,0.2635,0.2675,0.2704,0.28,0.2854,0.2967,0.2987,0.306,0.3159,0.3168,0.3181,0.3315,0.3278,0.336,0.3373,0.3427,0.3438,0.3447,0.3474,0.3485,0.3356,0.3356,0.3356,0,0.2427,0.2473,0.2523,0.2572,0.2615,0.2689,0.2733,0.2805,0.2926,0.2978,0.3012,0.3179,0.3196,0.3257,0.3306,0.334,0.3367,0.3287,0.3441,0.345,0.3458,0.3482,0.3493,0.3361,0.3361,0.336,0.336,0,0.2453,0.2495,0.2521,0.2595,0.2653,0.2706,0.2802,0.2896,0.2988,0.3058,0.3196,0.3259,0.3339,0.3383,0.3376,0.3459,0.3461,0.3461,0.3371,0.3478,0.3499,0.3508,0.3369,0.3367,0.3366,0.3364,0,0,0.2376,0.2503,0.251,0.2553,0.267,0.2716,0.2824,0.293,0.2997,0.3151,0.3246,0.3353,0.3406,0.3424,0.3458,0.3493,0.3587,0.3504,0.3504,0.3493,0.3707,0.3531,0.3524,0.3633,0.3635,0.3636,0.3708,0,0.2373,0.2453,0.2521,0.2598,0.2649,0.2752,0.284,0.295,0.3064,0.3189,0.328,0.3388,0.3418,0.3472,0.3522,0.3581,0.3613,0.3566,0.3634,0.3634,0.3435,0.3528,0.3294,0.3322,0.3716,0.3718,0.3719,0,0.2367,0.2428,0.2495,0.2608,0.2639,0.2699,0.2838,0.2929,0.3093,0.3188,0.3311,0.3401,0.3505,0.3512,0.3643,0.3629,0.366,0.3689,0.3694,0.3484,0.3474,0.3279,0.3323,0.3734,0.3733,0.3731,0.3731,0,0.229,0.2401,0.2451,0.2495,0.2637,0.2695,0.278,0.2933,0.3017,0.3191,0.328,0.3421,0.352,0.3599,0.3701,0.369,0.3824,0.3814,0.3674,0.3663,0.3441,0.3405,0.3863,0.3863,0.3863,0.3863,0.3863,0,0.2252,0.2291,0.2425,0.2457,0.252,0.265,0.2736,0.2845,0.3005,0.3102,0.3275,0.3385,0.3553,0.3671,0.3722,0.3737,0.3856,0.366,0.3664,0.3469,0.3437,0.3764,0.3751,0.3866,0.3865,0.3864,0.3864,0,0.215,0.2238,0.23,0.2443,0.2483,0.2535,0.2696,0.2767,0.2939,0.3074,0.3141,0.3387,0.3555,0.3685,0.3817,0.3746,0.3778,0.3742,0.3485,0.3453,0.3569,0.3561,0.3569,0.3563,0.3558,0.3554,0.3551,0,0.2101,0.2127,0.2254,0.2285,0.2348,0.245,0.2517,0.2704,0.2789,0.3073,0.3131,0.3362,0.3471,0.3601,0.3572,0.3585,0.3731,0.3313,0.3197,0.3533,0.3538,0.3538,0.3536,0.2977,0.297,0.2963,0.2958,0,0.2,0.205,0.2096,0.2167,0.2234,0.2311,0.2436,0.2489,0.2723,0.2848,0.303,0.3138,0.3287,0.322,0.3232,0.3197,0.3284,0.3171,0.364,0.3056,0.2971,0.2977,0.2997,0.2901,0.2907,0.2911,0.2914,0.2916,0.1903,0.1906,0.1973,0.2031,0.2098,0.2165,0.2195,0.2347,0.2456,0.2617,0.2779,0.2861,0.2921,0.2812,0.2763,0.2734,0.2904,0.2781,0.2804,0.2833,0.2719,0.2627,0.2471,0.2474,0.2477,0.2479,0.2481,0,0.177,0.1802,0.1844,0.1894,0.1914,0.2024,0.2123,0.2141,0.2224,0.2387,0.2464,0.2261,0.2257,0.2407,0.2249,0.2162,0.2163,0.2112,0.2149,0.2205,0.2255,0.2115,0.1706,0.1704,0.1702,0.17,0,0,0.1696,0.1685,0.1722,0.1706,0.1755,0.1763,0.1803,0.1853,0.1947,0.1935,0.1973,0.2103,0.2274,0.1953,0.1903,0.1822,0.1999,0.1738,0.2359,0.2459,0.2507,0.2633,0.2477,0,0,0,0,0]},{"header":{"parameterUnit":"m.s-1","parameterCategory":2,"la1":30.2991,"la2":30.254,"lo1":-89.0895,"lo2":-89.0444,"dy":0.0017,"dx":0.0017,"nx":28,"ny":28,"refTime":"2023-08-13T03:00:00:Z","depth":"2","parameterNumber":3,"parameterNumberName":"V-component_of_CURRENTS"},"data":[0,0,0,0,0,0,0,0,0,0,0,0,0,0,0,0,0,0,0,0,0,0,0,0,0,0,0,0,0,0,0,0,0,0,0,0,0,0,0,0,0,0,0,0,0,0,0,0,0,0,0,0,0,0,0,0,0,0,-0.0919,-0.0919,0,-0.0937,-0.0937,-0.0938,-0.0953,-0.0953,-0.0954,-0.0954,-0.1051,-0.1053,-0.1055,0,0,0,0,0,0,0,0,0,0,0,0,0,-0.0883,-0.0883,-0.0919,-0.0919,-0.0919,-0.0937,-0.0937,-0.0938,-0.0953,-0.0953,-0.0954,-0.0954,-0.105,-0.1053,-0.1056,0,0,0,0,0,0,0,0,0,0,0,0,0,-0.0899,-0.0883,-0.0919,-0.0929,-0.093,-0.0937,-0.0937,-0.0938,-0.0953,-0.0953,-0.0954,-0.0954,-0.1049,-0.1052,-0.1056,-0.1072,0,0,-0.1067,-0.1068,0,0,0,0,0,0,0,0,-0.0898,-0.09,-0.0927,-0.0929,-0.093,-0.0944,-0.096,-0.0987,-0.0953,-0.0944,-0.0954,-0.0954,-0.1022,-0.1028,-0.1029,-0.1077,-0.1081,-0.1067,-0.1069,-0.1071,-0.1072,0,0,0,0,0,0,0,-0.0897,-0.09,-0.0926,-0.0928,-0.0929,-0.0928,-0.0931,-0.0965,-0.0982,-0.0945,-0.0946,-0.0949,-0.1023,-0.1025,-0.1032,-0.1082,-0.1067,-0.107,-0.1073,-0.1074,-0.1096,-0.1095,0,0,0,0,0,0,-0.0896,-0.0899,-0.0925,-0.0926,-0.0915,-0.0929,-0.0932,-0.0939,-0.098,-0.0986,-0.0948,-0.0949,-0.1019,-0.1027,-0.1035,-0.0984,-0.1071,-0.1074,-0.1076,-0.1098,-0.1096,-0.1094,0,0,0,0,0,0,-0.0895,-0.0898,-0.0924,-0.0913,-0.0916,-0.0929,-0.0936,-0.0939,-0.0912,-0.0982,-0.099,-0.0916,-0.102,-0.103,-0.1043,-0.0991,-0.1076,-0.1079,-0.11,-0.1097,-0.1095,-0.0928,0,0,0,0,0,0,-0.0894,-0.0898,-0.0894,-0.0913,-0.0917,-0.0913,-0.0936,-0.0939,-0.0915,-0.0916,-0.0958,-0.0969,-0.1021,-0.1037,-0.1046,-0.0997,-0.1082,-0.1102,-0.1099,-0.1096,-0.0935,-0.092,-0.0907,0,0,0,0,0,-0.0893,-0.0885,-0.0894,-0.0896,-0.0914,-0.0912,-0.0913,-0.0924,-0.0913,-0.0899,-0.0924,-0.0966,-0.1025,-0.1039,-0.105,-0.1,-0.1103,-0.11,-0.1096,-0.0942,-0.0923,-0.0907,0,0,0,0,0,0,-0.0861,-0.0887,-0.0896,-0.0895,-0.0897,-0.0915,-0.0903,-0.0897,-0.0901,-0.0897,-0.0951,-0.0964,-0.0949,-0.1004,-0.1018,-0.1,-0.1069,-0.1067,-0.0947,-0.0931,-0.0917,-0.0965,-0.1085,0,0,0,0,0,-0.0854,-0.0858,-0.0876,-0.0871,-0.087,-0.0875,-0.0869,-0.0871,-0.0882,-0.0881,-0.0876,-0.0906,-0.0947,-0.0962,-0.0991,-0.0988,-0.1058,-0.0964,-0.095,-0.0937,-0.0985,-0.1045,-0.1041,-0.1083,-0.1083,-0.1083,0,0,-0.0846,-0.0854,-0.086,-0.0865,-0.0867,-0.085,-0.0871,-0.0852,-0.0821,-0.0894,-0.0817,-0.0846,-0.0934,-0.0922,-0.0922,-0.0961,-0.0945,-0.0933,-0.0921,-0.0978,-0.1041,-0.1037,-0.1034,-0.1081,-0.1081,-0.1081,0,0,-0.0813,-0.083,-0.0815,-0.0813,-0.0806,-0.0813,-0.0795,-0.0766,-0.0739,-0.0687,-0.0737,-0.0751,-0.0744,-0.0819,-0.0864,-0.0799,-0.0861,-0.0771,-0.0747,-0.08,-0.0798,-0.0797,-0.0808,-0.081,-0.0772,-0.0772,-0.0771,0,-0.0799,-0.0778,-0.0806,-0.0782,-0.0766,-0.0786,-0.0746,-0.0736,-0.0694,-0.0675,-0.0639,-0.066,-0.0714,-0.0786,-0.0764,-0.077,-0.0793,-0.0796,-0.0782,-0.0784,-0.0786,-0.0798,-0.0803,-0.0763,-0.0764,-0.0765,-0.0766,0,-0.0754,-0.0729,-0.0715,-0.0697,-0.0684,-0.0656,-0.065,-0.0602,-0.0545,-0.0534,-0.0506,-0.0561,-0.0591,-0.0589,-0.0664,-0.0704,-0.0707,-0.0745,-0.0824,-0.0772,-0.0787,-0.0794,-0.0751,-0.0754,-0.0757,-0.0759,0,0,-0.0727,-0.0693,-0.0679,-0.0639,-0.063,-0.0604,-0.0566,-0.0541,-0.0492,-0.0449,-0.039,-0.047,-0.048,-0.054,-0.0604,-0.0672,-0.0676,-0.0708,-0.0715,-0.0716,-0.075,-0.0727,-0.0733,-0.0692,-0.0694,-0.0695,-0.0728,0,-0.0671,-0.0599,-0.0598,-0.0513,-0.0472,-0.0481,-0.0427,-0.0413,-0.0377,-0.0315,-0.0405,-0.0372,-0.0468,-0.0447,-0.0538,-0.0636,-0.07,-0.0663,-0.0808,-0.0813,-0.0798,-0.0745,-0.07,-0.0725,-0.0736,-0.0737,-0.0738,0,-0.0607,-0.0564,-0.0471,-0.039,-0.0368,-0.032,-0.0246,-0.0201,-0.0202,-0.017,-0.0212,-0.0244,-0.035,-0.0403,-0.0594,-0.055,-0.0658,-0.0744,-0.0747,-0.0814,-0.0808,-0.0796,-0.0739,-0.0752,-0.0751,-0.075,-0.0749,0,-0.0538,-0.0461,-0.0371,-0.035,-0.0278,-0.0218,-0.0172,-0.0145,-0.0074,-0.0081,-0.0024,-0.0157,-0.0148,-0.0343,-0.0512,-0.0539,-0.0695,-0.0747,-0.0841,-0.0838,-0.0886,-0.0884,-0.0908,-0.0908,-0.0908,-0.0908,-0.0908,0,-0.0464,-0.0383,-0.0321,-0.0269,-0.0131,-0.0115,0.0025,0.0041,0.0094,0.0187,0.0065,0.0106,-0.0129,-0.0232,-0.0453,-0.0643,-0.0645,-0.085,-0.0859,-0.0815,-0.0807,-0.0926,-0.0928,-0.0909,-0.0909,-0.0909,-0.0909,0,-0.037,-0.0344,-0.0227,-0.0134,-0.0085,0.0024,0.0168,0.0259,0.0281,0.0397,0.0412,0.0334,0.0195,-0.0051,-0.0313,-0.0506,-0.0731,-0.0808,-0.0712,-0.0713,-0.0855,-0.0847,-0.0924,-0.0924,-0.0924,-0.0924,-0.0924,0,-0.0306,-0.0239,-0.0111,-0.0028,0.0035,0.0183,0.0297,0.0358,0.0454,0.0539,0.0606,0.0529,0.0453,0.0089,-0.0252,-0.0603,-0.0682,-0.0766,-0.0859,-0.0862,-0.0864,-0.0857,-0.085,-0.0822,-0.0821,-0.082,-0.082,0,-0.0173,-0.0128,-0.004,0.0117,0.0251,0.0403,0.0558,0.0653,0.0747,0.0824,0.0913,0.0859,0.0537,0.0204,-0.0246,-0.049,-0.0712,-0.0761,-0.0791,-0.0821,-0.0768,-0.0769,-0.0765,-0.0813,-0.0813,-0.0814,-0.0814,-0.0815,-0.0061,0.0022,0.0128,0.0286,0.0435,0.0611,0.0751,0.0895,0.1058,0.1166,0.1091,0.1005,0.0635,0.0039,-0.0295,-0.0619,-0.0681,-0.0824,-0.0825,-0.0828,-0.0807,-0.0757,-0.0793,-0.0793,-0.0794,-0.0794,-0.0795,0,0.006,0.0145,0.029,0.047,0.0643,0.0703,0.0927,0.1066,0.1272,0.1296,0.1308,0.0903,0.0516,0.0136,-0.0346,-0.0677,-0.0711,-0.0749,-0.0735,-0.0741,-0.0747,-0.0722,-0.0685,-0.0684,-0.0684,-0.0684,0,0,0.0131,0.0268,0.0331,0.0622,0.0763,0.101,0.1145,0.1343,0.1435,0.1416,0.1326,0.1091,0.0621,0.0289,-0.0146,-0.0379,-0.0467,-0.0421,-0.0486,-0.0422,-0.0422,-0.078,-0.0747,0,0,0,0,0]}],[{"header":{"parameterUnit":"m.s-1","parameterCategory":2,"la1":30.2991,"la2":30.254,"lo1":-89.0895,"lo2":-89.0444,"dy":0.0017,"dx":0.0017,"nx":28,"ny":28,"refTime":"2023-08-13T03:00:00:Z","depth":"4","parameterNumber":2,"parameterNumberName":"U-component_of_CURRENTS"},"data":[0,0,0,0,0,0,0,0,0,0,0,0,0,0,0,0,0,0,0,0,0,0,0,0,0,0,0,0,0,0,0,0,0,0,0,0,0,0,0,0,0,0,0,0,0,0,0,0,0,0,0,0,0,0,0,0,0,0,0.0897,0.0898,0,0.0959,0.0959,0.0959,0.101,0.1011,0.1012,0.1014,0.1094,0.1095,0.1096,0,0,0,0,0,0,0,0,0,0,0,0,0,0.084,0.084,0.0897,0.0898,0.09,0.0959,0.0959,0.0959,0.101,0.1011,0.1013,0.1014,0.1093,0.1095,0.1096,0,0,0,0,0,0,0,0,0,0,0,0,0,0.0873,0.084,0.0897,0.0937,0.0941,0.0959,0.0959,0.0959,0.101,0.1011,0.1013,0.1015,0.1093,0.1094,0.1096,0.1072,0,0,0.1101,0.1102,0,0,0,0,0,0,0,0,0.0871,0.0875,0.0929,0.0934,0.0939,0.0984,0.0969,0.1,0.1009,0.0977,0.1014,0.1016,0.1062,0.1066,0.1064,0.1076,0.1079,0.1101,0.1102,0.1103,0.1103,0,0,0,0,0,0,0,0.0869,0.0872,0.0915,0.0931,0.0937,0.0959,0.0964,0.0975,0.1004,0.098,0.0985,0.1002,0.1064,0.1063,0.1067,0.1081,0.1101,0.1102,0.1103,0.1104,0.1182,0.1184,0,0,0,0,0,0,0.0872,0.087,0.0913,0.0917,0.0916,0.0958,0.0965,0.0963,0.1004,0.1014,0.1001,0.1004,0.1059,0.1065,0.107,0.1134,0.1103,0.1104,0.1105,0.1181,0.1183,0.1184,0,0,0,0,0,0,0.087,0.0874,0.0911,0.0902,0.0909,0.0958,0.0956,0.0963,0.1,0.1021,0.103,0.1035,0.1061,0.1068,0.1114,0.1134,0.1105,0.1106,0.118,0.1182,0.1183,0.1205,0,0,0,0,0,0,0.0867,0.0872,0.0885,0.0901,0.091,0.0943,0.0955,0.0964,0.1009,0.1015,0.1052,0.1059,0.1062,0.1112,0.1116,0.1136,0.1108,0.1179,0.1181,0.1183,0.1203,0.1207,0.1211,0,0,0,0,0,0.0865,0.0874,0.0884,0.0892,0.092,0.0945,0.0951,0.0987,0.1009,0.1026,0.1058,0.106,0.1128,0.1114,0.1118,0.114,0.1178,0.118,0.1183,0.1201,0.1206,0.1211,0,0,0,0,0,0,0.0855,0.0882,0.0893,0.091,0.0937,0.0957,0.0983,0.1004,0.104,0.1058,0.1073,0.1082,0.112,0.1133,0.1117,0.1169,0.1153,0.1157,0.1166,0.1171,0.1175,0.1213,0.1109,0,0,0,0,0,0.0858,0.0872,0.0899,0.0914,0.0932,0.0961,0.0983,0.1007,0.1037,0.1056,0.1083,0.1112,0.1125,0.1154,0.1161,0.1199,0.1209,0.1217,0.1221,0.1225,0.126,0.1247,0.1252,0.1192,0.1192,0.1192,0,0,0.0855,0.0876,0.0882,0.0914,0.0938,0.0966,0.0978,0.1019,0.1048,0.1058,0.1113,0.112,0.1134,0.1166,0.1187,0.119,0.1253,0.1228,0.123,0.1265,0.125,0.1256,0.1261,0.1194,0.1193,0.1193,0,0,0.0857,0.0879,0.0895,0.0922,0.0972,0.099,0.1011,0.105,0.1078,0.1128,0.1129,0.1167,0.1202,0.1215,0.1224,0.1262,0.1258,0.1259,0.1329,0.1314,0.1319,0.1323,0.1364,0.1372,0.1278,0.1278,0.1278,0,0.0861,0.0881,0.0905,0.0935,0.0968,0.1006,0.1038,0.1063,0.1114,0.1141,0.1159,0.1213,0.1228,0.126,0.1284,0.1272,0.1278,0.1304,0.1319,0.1323,0.1327,0.1367,0.1375,0.128,0.1279,0.1279,0.1279,0,0.0868,0.0903,0.0919,0.0966,0.1,0.1036,0.1078,0.1118,0.1164,0.1194,0.1248,0.127,0.131,0.1313,0.1323,0.1357,0.1358,0.1305,0.1303,0.1334,0.1375,0.1383,0.1282,0.1281,0.1281,0.128,0,0,0.0833,0.0909,0.092,0.0954,0.1026,0.1049,0.1105,0.1161,0.1208,0.1261,0.1314,0.1359,0.1382,0.1397,0.1396,0.1418,0.1462,0.1397,0.1395,0.1435,0.1472,0.1397,0.1398,0.1395,0.1396,0.1397,0.1496,0,0.084,0.0894,0.0936,0.0999,0.1034,0.1092,0.1142,0.1199,0.1256,0.1313,0.135,0.1407,0.1404,0.1443,0.1451,0.1456,0.1481,0.1443,0.1441,0.1443,0.1367,0.1404,0.14,0.1502,0.1504,0.1505,0.1506,0,0.0836,0.0879,0.0937,0.1027,0.105,0.1098,0.1191,0.1241,0.1322,0.137,0.1428,0.146,0.153,0.1503,0.1547,0.1519,0.1515,0.1517,0.1518,0.1452,0.1382,0.1461,0.1521,0.152,0.1519,0.1518,0.1517,0,0.0792,0.0883,0.093,0.0959,0.106,0.111,0.1175,0.1268,0.1322,0.1423,0.1481,0.1533,0.1589,0.1582,0.1614,0.1584,0.1645,0.1582,0.1516,0.1513,0.1541,0.1535,0.1599,0.1599,0.1599,0.1599,0.1598,0,0.0776,0.0818,0.0922,0.0946,0.1019,0.1104,0.1191,0.1262,0.1367,0.1431,0.1513,0.1566,0.1611,0.1648,0.1638,0.1621,0.1657,0.1559,0.1528,0.1552,0.1546,0.1548,0.154,0.1602,0.1602,0.1601,0.16,0,0.0716,0.0783,0.084,0.0954,0.0999,0.1053,0.1198,0.1252,0.1378,0.1461,0.151,0.162,0.1681,0.1713,0.1732,0.1664,0.165,0.1623,0.1713,0.168,0.1531,0.1524,0.1574,0.1572,0.157,0.1569,0.1568,0,0.0686,0.0711,0.0823,0.086,0.092,0.1021,0.1085,0.1233,0.1299,0.1475,0.1501,0.1629,0.1678,0.1668,0.169,0.1685,0.1642,0.1644,0.1545,0.1561,0.1527,0.1522,0.1518,0.1565,0.1565,0.1564,0.1564,0,0.0629,0.0673,0.0716,0.0791,0.0866,0.0939,0.1058,0.1104,0.127,0.1387,0.1483,0.1536,0.1596,0.1619,0.1639,0.1612,0.1648,0.1626,0.1628,0.1534,0.1551,0.1518,0.1515,0.1558,0.1559,0.156,0.156,0,0.0581,0.0593,0.0655,0.0717,0.0794,0.0852,0.0924,0.103,0.1126,0.1337,0.1357,0.1475,0.1583,0.1582,0.1585,0.1578,0.1537,0.1474,0.1483,0.1489,0.1408,0.1414,0.1376,0,0,0,0,0,0.0533,0.0544,0.0583,0.0648,0.0715,0.0769,0.09,0.0979,0.1143,0.1181,0.1281,0.1338,0.1393,0.145,0.1421,0.1516,0.152,0.1474,0.1444,0.1527,0.1533,0.1442,0,0,0,0,0,0,0.0501,0.0531,0.0552,0.058,0.0608,0.0685,0.0763,0.0871,0.092,0.1086,0.1124,0.125,0.1314,0.1386,0.1388,0.1404,0.1359,0.1552,0.1548,0.1523,0.1529,0.1534,0.1442,0,0,0,0,0]},{"header":{"parameterUnit":"m.s-1","parameterCategory":2,"la1":30.2991,"la2":30.254,"lo1":-89.0895,"lo2":-89.0444,"dy":0.0017,"dx":0.0017,"nx":28,"ny":28,"refTime":"2023-08-13T03:00:00:Z","depth":"4","parameterNumber":3,"parameterNumberName":"V-component_of_CURRENTS"},"data":[0,0,0,0,0,0,0,0,0,0,0,0,0,0,0,0,0,0,0,0,0,0,0,0,0,0,0,0,0,0,0,0,0,0,0,0,0,0,0,0,0,0,0,0,0,0,0,0,0,0,0,0,0,0,0,0,0,0,-0.0294,-0.0295,0,-0.0358,-0.0359,-0.0359,-0.0389,-0.0389,-0.0389,-0.0389,-0.0503,-0.0506,-0.0509,0,0,0,0,0,0,0,0,0,0,0,0,0,-0.0241,-0.0241,-0.0294,-0.0295,-0.0296,-0.0358,-0.0359,-0.0359,-0.0389,-0.0389,-0.0389,-0.0389,-0.0502,-0.0505,-0.0509,0,0,0,0,0,0,0,0,0,0,0,0,0,-0.0278,-0.0241,-0.0294,-0.032,-0.0323,-0.0358,-0.0359,-0.036,-0.0389,-0.0389,-0.0389,-0.0389,-0.0501,-0.0505,-0.0509,-0.0532,0,0,-0.0522,-0.0524,0,0,0,0,0,0,0,0,-0.0276,-0.028,-0.0315,-0.0318,-0.0322,-0.0368,-0.0382,-0.042,-0.0389,-0.0361,-0.0389,-0.0389,-0.0464,-0.0471,-0.0479,-0.0537,-0.0542,-0.0523,-0.0526,-0.0527,-0.0529,0,0,0,0,0,0,0,-0.0273,-0.0277,-0.0317,-0.0316,-0.032,-0.0343,-0.0348,-0.0389,-0.041,-0.0364,-0.0367,-0.0377,-0.0465,-0.0474,-0.0482,-0.0543,-0.0523,-0.0527,-0.0529,-0.0531,-0.0682,-0.0684,0,0,0,0,0,0,-0.0267,-0.0275,-0.0315,-0.0319,-0.0301,-0.0344,-0.035,-0.0351,-0.0408,-0.0417,-0.0377,-0.0378,-0.0467,-0.0477,-0.0486,-0.0525,-0.0527,-0.0531,-0.0534,-0.0681,-0.0683,-0.0684,0,0,0,0,0,0,-0.0266,-0.027,-0.0313,-0.0301,-0.0308,-0.0345,-0.0346,-0.0352,-0.0376,-0.0418,-0.0428,-0.0396,-0.0467,-0.048,-0.0536,-0.053,-0.0533,-0.0537,-0.0679,-0.0682,-0.0684,-0.0598,0,0,0,0,0,0,-0.0264,-0.0268,-0.0275,-0.03,-0.0309,-0.0337,-0.0346,-0.0353,-0.0382,-0.0385,-0.0438,-0.0448,-0.0468,-0.053,-0.0541,-0.0536,-0.0541,-0.0678,-0.068,-0.0683,-0.0599,-0.0597,-0.0595,0,0,0,0,0,-0.0261,-0.0263,-0.0275,-0.0281,-0.0314,-0.0338,-0.0344,-0.037,-0.0383,-0.0392,-0.0434,-0.0447,-0.0555,-0.0534,-0.0547,-0.0543,-0.0676,-0.068,-0.0683,-0.06,-0.0597,-0.0595,0,0,0,0,0,0,-0.0251,-0.0267,-0.028,-0.029,-0.0316,-0.0343,-0.0356,-0.0378,-0.0417,-0.0425,-0.0464,-0.0477,-0.0522,-0.056,-0.0536,-0.0601,-0.0619,-0.0625,-0.0552,-0.055,-0.0548,-0.0531,-0.0544,0,0,0,0,0,-0.0251,-0.025,-0.0279,-0.0289,-0.0299,-0.0332,-0.0349,-0.0368,-0.0403,-0.042,-0.046,-0.0508,-0.0543,-0.0568,-0.061,-0.0647,-0.0674,-0.0658,-0.0656,-0.0654,-0.0653,-0.0676,-0.0674,-0.0695,-0.0695,-0.0695,0,0,-0.0249,-0.026,-0.0261,-0.0287,-0.0306,-0.031,-0.0342,-0.0367,-0.0371,-0.0428,-0.0457,-0.0505,-0.0555,-0.0588,-0.0612,-0.0618,-0.0667,-0.0658,-0.0655,-0.0656,-0.0679,-0.0676,-0.0674,-0.0697,-0.0697,-0.0696,0,0,-0.0234,-0.0256,-0.0245,-0.0261,-0.0293,-0.031,-0.032,-0.0359,-0.0376,-0.0418,-0.0451,-0.0503,-0.0566,-0.0591,-0.0612,-0.0635,-0.0656,-0.0652,-0.0621,-0.0643,-0.064,-0.0638,-0.0673,-0.0675,-0.0648,-0.0648,-0.0648,0,-0.0232,-0.0222,-0.0251,-0.0246,-0.0253,-0.0306,-0.0298,-0.0322,-0.0377,-0.0392,-0.0422,-0.0515,-0.0564,-0.0584,-0.0593,-0.0626,-0.0644,-0.0612,-0.0634,-0.0633,-0.0632,-0.0669,-0.0672,-0.0644,-0.0645,-0.0645,-0.0646,0,-0.0199,-0.0201,-0.0199,-0.02,-0.0215,-0.0223,-0.0254,-0.0279,-0.0319,-0.0348,-0.0399,-0.0469,-0.0521,-0.0546,-0.0576,-0.0593,-0.0611,-0.0622,-0.0623,-0.0624,-0.0665,-0.0669,-0.0639,-0.064,-0.0641,-0.0642,0,0,-0.0166,-0.017,-0.017,-0.0161,-0.0191,-0.0196,-0.0205,-0.0226,-0.0234,-0.0303,-0.0317,-0.0394,-0.0443,-0.0473,-0.0519,-0.0548,-0.0569,-0.0578,-0.0581,-0.0585,-0.0619,-0.0591,-0.0593,-0.0567,-0.0567,-0.0568,-0.065,0,-0.0131,-0.0105,-0.0118,-0.0098,-0.0088,-0.0127,-0.0129,-0.016,-0.0204,-0.0237,-0.0309,-0.0352,-0.0407,-0.0437,-0.047,-0.0552,-0.0576,-0.0546,-0.0645,-0.0649,-0.0598,-0.0596,-0.0569,-0.0653,-0.0654,-0.0655,-0.0656,0,-0.0092,-0.0078,-0.0047,-0.0042,-0.004,-0.0037,-0.0051,-0.0061,-0.0116,-0.0153,-0.0207,-0.0272,-0.0339,-0.0383,-0.0496,-0.0469,-0.0536,-0.0596,-0.06,-0.0605,-0.0627,-0.0659,-0.0664,-0.0663,-0.0663,-0.0662,-0.0662,0,-0.0051,-0.003,-0.0,0.0002,-0.0001,0.0007,0.0001,-0.0041,-0.0043,-0.0102,-0.0123,-0.0211,-0.0264,-0.0352,-0.0487,-0.0489,-0.0607,-0.0625,-0.066,-0.066,-0.0696,-0.0698,-0.0685,-0.0685,-0.0685,-0.0685,-0.0684,0,-0.001,0.0012,0.0023,0.0039,0.0073,0.0052,0.007,0.0047,0.0017,0.0015,-0.0075,-0.0101,-0.0256,-0.0347,-0.0461,-0.0574,-0.0585,-0.0654,-0.0672,-0.0663,-0.066,-0.07,-0.07,-0.0688,-0.0687,-0.0686,-0.0686,0,0.0019,0.0027,0.0064,0.0082,0.0092,0.0111,0.0125,0.0133,0.0098,0.0095,0.008,-0.0027,-0.0156,-0.0304,-0.047,-0.0535,-0.0652,-0.0683,-0.0669,-0.0687,-0.0702,-0.0698,-0.0736,-0.0735,-0.0735,-0.0734,-0.0734,0,0.0035,0.0058,0.0099,0.0126,0.0136,0.0165,0.0184,0.0171,0.0184,0.0142,0.0147,0.0025,-0.0062,-0.0268,-0.0433,-0.0635,-0.0655,-0.0703,-0.0699,-0.069,-0.0705,-0.0701,-0.0698,-0.0734,-0.0733,-0.0733,-0.0733,0,0.0066,0.0078,0.0109,0.0166,0.0201,0.0242,0.0271,0.0291,0.0277,0.0255,0.0207,0.0086,-0.0056,-0.0249,-0.0402,-0.0545,-0.0667,-0.0699,-0.0701,-0.0699,-0.0688,-0.0702,-0.0699,-0.0732,-0.0732,-0.0732,-0.0732,0,0.0087,0.011,0.0153,0.0203,0.0251,0.0297,0.0312,0.0329,0.0338,0.0299,0.0281,0.0115,0.0009,-0.0202,-0.0344,-0.0484,-0.0523,-0.0544,-0.0555,-0.0559,-0.0481,-0.0439,-0.0417,0,0,0,0,0,0.0107,0.0138,0.0188,0.024,0.0288,0.0316,0.0362,0.037,0.0369,0.0354,0.0321,0.0189,-0.0033,-0.0142,-0.0277,-0.0355,-0.0557,-0.0514,-0.0589,-0.0724,-0.0726,-0.0662,0,0,0,0,0,0,0.0121,0.0167,0.0192,0.0263,0.0301,0.0355,0.0384,0.0385,0.0377,0.0355,0.0232,0.0177,-0.0054,0.0037,-0.0277,-0.0322,-0.0378,-0.0627,-0.0628,-0.0723,-0.0725,-0.0726,-0.0661,0,0,0,0,0]}]]